Location: Asheville, NC
(35.6000°N, 82.5500°W)
Time: 00:30:01
(UTC-04:00)

AO-73 - Pass Details

Date: 12 March 2018
Orbit: 582 x 665 km, 97.6° (Epoch: 24 June)

Event Time Altitude Azimuth Distance (km) Brightness Sun altitude
Rises 20:17:44 0° 148° (SSE) 2,889 ? -9.5°
Reaches altitude 10° 20:20:03 10° 141° (SE) 1,972 ? -9.9°
Maximum altitude 20:24:00 37° 73° (ENE) 945 ? -10.7°
Drops below altitude 10° 20:27:53 10° 6° (N) 1,940 ? -11.5°
Sets 20:30:08 0° 358° (N) 2,836 ? -12.0°
